�������l�o���
Date,Time,MP-1(��Sv/h),MP-2(��Sv/h),MP-3(��Sv/h),MP-4(��Sv/h),MP-5(��Sv/h),MP-6(��Sv/h),MP-7(��Sv/h),MP-8(��Sv/h),����,����(m/s),���J
2021/11/02,00:00,0.588,0.881,0.560,1.074,0.756,0.358,0.619,0.583,�k�k��,5.6,��
2021/11/02,00:10,0.587,0.880,0.559,1.071,0.757,0.358,0.620,0.583,�k�k��,5.2,��
2021/11/02,00:20,0.587,0.880,0.559,1.073,0.758,0.357,0.620,0.583,�k��,5.8,��
2021/11/02,00:30,0.590,0.880,0.559,1.072,0.755,0.357,0.618,0.585,�k��,5.4,��
2021/11/02,00:40,0.588,0.879,0.559,1.072,0.757,0.357,0.621,0.582,�k��,6.0,��
2021/11/02,00:50,0.588,0.881,0.560,1.073,0.756,0.358,0.618,0.582,�k��,5.0,��
2021/11/02,01:00,0.586,0.882,0.561,1.073,0.756,0.360,0.620,0.583,�k�k��,5.1,��
2021/11/02,01:10,0.587,0.883,0.559,1.071,0.759,0.359,0.619,0.585,�k�k��,4.4,��
2021/11/02,01:20,0.588,0.880,0.558,1.072,0.755,0.358,0.619,0.583,�k�k��,4.7,��
2021/11/02,01:30,0.588,0.882,0.558,1.074,0.754,0.358,0.620,0.585,�k�k��,5.6,��
2021/11/02,01:40,0.587,0.880,0.559,1.072,0.756,0.358,0.619,0.583,�k��,6.2,��
2021/11/02,01:50,0.587,0.880,0.559,1.076,0.756,0.358,0.620,0.583,�k��,5.9,��
2021/11/02,02:00,0.588,0.881,0.560,1.073,0.755,0.359,0.619,0.584,�k��,5.7,��
2021/11/02,02:10,0.588,0.881,0.559,1.073,0.758,0.357,0.619,0.582,�k��,5.8,��
2021/11/02,02:20,0.589,0.880,0.560,1.075,0.756,0.358,0.620,0.583,�k�k��,5.1,��
2021/11/02,02:30,0.586,0.878,0.561,1.074,0.757,0.358,0.619,0.583,�k��,6.5,��
2021/11/02,02:40,0.586,0.880,0.560,1.074,0.757,0.357,0.619,0.584,�k�k��,6.5,��
2021/11/02,02:50,0.587,0.881,0.561,1.074,0.756,0.358,0.618,0.583,�k��,4.8,��
2021/11/02,03:00,0.588,0.878,0.558,1.073,0.757,0.358,0.619,0.583,�k��,5.4,��
2021/11/02,03:10,0.589,0.879,0.558,1.075,0.758,0.358,0.620,0.584,�k�k��,5.8,��
2021/11/02,03:20,0.588,0.881,0.561,1.074,0.758,0.357,0.620,0.585,�k�k��,7.3,��
2021/11/02,03:30,0.588,0.882,0.560,1.074,0.757,0.357,0.619,0.583,�k�k��,6.2,��
2021/11/02,03:40,0.588,0.883,0.560,1.074,0.758,0.358,0.621,0.582,�k�k��,4.0,��
2021/11/02,03:50,0.588,0.879,0.559,1.074,0.755,0.357,0.620,0.584,�k��,2.2,��
2021/11/02,04:00,0.588,0.881,0.559,1.073,0.755,0.356,0.621,0.584,�k�k��,3.2,��
2021/11/02,04:10,0.587,0.881,0.557,1.074,0.757,0.360,0.621,0.585,�k�k��,4.0,��
2021/11/02,04:20,0.588,0.882,0.559,1.075,0.756,0.359,0.623,0.583,�k�k��,4.2,��
2021/11/02,04:30,0.589,0.881,0.559,1.074,0.756,0.358,0.620,0.584,�k�k��,4.9,��
2021/11/02,04:40,0.587,0.883,0.560,1.075,0.757,0.359,0.620,0.584,�k�k��,4.6,��
2021/11/02,04:50,0.588,0.881,0.559,1.073,0.757,0.358,0.620,0.582,�k��,4.2,��
2021/11/02,05:00,0.588,0.881,0.559,1.075,0.757,0.358,0.621,0.583,�k�k��,3.9,��
2021/11/02,05:10,0.589,0.882,0.561,1.075,0.757,0.357,0.622,0.583,�k��,4.6,��
2021/11/02,05:20,0.588,0.879,0.559,1.074,0.756,0.358,0.620,0.584,�k��,4.2,�L
2021/11/02,05:30,0.588,0.881,0.561,1.072,0.756,0.358,0.622,0.582,�k��,4.2,��
2021/11/02,05:40,0.588,0.881,0.560,1.072,0.757,0.357,0.622,0.584,�k�k��,4.3,��
2021/11/02,05:50,0.587,0.882,0.560,1.074,0.756,0.358,0.621,0.583,�k��,3.7,��
2021/11/02,06:00,0.587,0.879,0.558,1.076,0.756,0.359,0.621,0.582,�k�k��,4.0,��
2021/11/02,06:10,0.587,0.881,0.560,1.073,0.754,0.358,0.620,0.583,�k�k��,4.1,��
2021/11/02,06:20,0.589,0.881,0.559,1.074,0.757,0.359,0.621,0.582,�k��,4.0,��
2021/11/02,06:30,0.587,0.883,0.559,1.073,0.757,0.359,0.620,0.583,�k��,4.1,��
2021/11/02,06:40,0.588,0.881,0.559,1.073,0.756,0.358,0.621,0.584,�k��,3.8,��
2021/11/02,06:50,0.588,0.882,0.560,1.074,0.757,0.358,0.621,0.584,�k�k��,3.3,��
2021/11/02,07:00,0.588,0.880,0.558,1.075,0.756,0.357,0.622,0.582,�k��,3.9,��
2021/11/02,07:10,0.587,0.879,0.558,1.075,0.756,0.357,0.622,0.582,�k�k��,4.2,��
2021/11/02,07:20,0.586,0.883,0.560,1.075,0.756,0.358,0.621,0.583,�k�k��,4.2,��
2021/11/02,07:30,0.587,0.881,0.557,1.075,0.754,0.357,0.621,0.584,�k��,4.1,��
2021/11/02,07:40,0.589,0.879,0.560,1.075,0.755,0.359,0.621,0.584,�k��,4.0,��
2021/11/02,07:50,0.588,0.884,0.560,1.074,0.755,0.359,0.621,0.583,�k�k��,2.9,��
2021/11/02,08:00,0.588,0.882,0.559,1.076,0.754,0.359,0.623,0.583,�k�k��,1.9,��
2021/11/02,08:10,0.589,0.881,0.560,1.074,0.756,0.359,0.620,0.584,�k�k��,1.5,��
2021/11/02,08:20,0.589,0.882,0.559,1.075,0.757,0.359,0.623,0.584,�k�k��,2.3,��
2021/11/02,08:30,0.589,0.881,0.560,1.072,0.756,0.357,0.620,0.582,�k�k��,1.7,��
2021/11/02,08:40,0.590,0.878,0.561,1.076,0.758,0.359,0.618,0.584,�k,2.3,��
2021/11/02,08:50,0.586,0.881,0.559,1.076,0.755,0.358,0.621,0.584,�k,1.9,��
2021/11/02,09:00,0.584,0.879,0.560,1.075,0.757,0.359,0.622,0.585,�k�k��,1.9,��
2021/11/02,09:10,0.585,0.877,0.560,1.075,0.755,0.357,0.619,0.584,�k�k��,2.9,��
2021/11/02,09:20,0.585,0.876,0.559,1.074,0.756,0.357,0.619,0.582,�k�k��,3.4,��
2021/11/02,09:30,0.586,0.875,0.560,1.074,0.756,0.358,0.619,0.582,�k�k��,4.0,��
2021/11/02,09:40,0.586,0.876,0.558,1.076,0.755,0.357,0.621,0.585,�k�k��,4.4,��
2021/11/02,09:50,0.585,0.877,0.558,1.075,0.757,0.356,0.620,0.584,�k�k��,4.6,��
2021/11/02,10:00,0.586,0.877,0.559,1.074,0.754,0.355,0.619,0.582,�k�k��,4.4,��
2021/11/02,10:10,0.586,0.877,0.558,1.073,0.755,0.355,0.620,0.581,�k�k��,4.6,��
2021/11/02,10:20,0.586,0.877,0.558,1.075,0.755,0.356,0.619,0.582,�k,5.0,��
2021/11/02,10:30,0.587,0.877,0.558,1.072,0.756,0.355,0.620,0.581,�k�k��,6.2,��
2021/11/02,10:40,0.585,0.874,0.560,1.076,0.756,0.354,0.620,0.582,�k,5.9,��
2021/11/02,10:50,0.586,0.876,0.559,1.074,0.754,0.355,0.620,0.582,�k,6.1,��
2021/11/02,11:00,0.587,0.877,0.560,1.076,0.755,0.355,0.619,0.582,�k,6.5,��
2021/11/02,11:10,0.587,0.877,0.558,1.074,0.756,0.356,0.619,0.581,�k�k��,5.4,��
2021/11/02,11:20,0.585,0.876,0.559,1.075,0.757,0.356,0.621,0.581,�k�k��,6.4,��
2021/11/02,11:30,0.586,0.875,0.559,1.074,0.757,0.355,0.622,0.580,�k,5.2,��
2021/11/02,11:40,0.588,0.879,0.560,1.077,0.756,0.356,0.619,0.583,�k�k��,5.5,��
2021/11/02,11:50,0.587,0.881,0.559,1.075,0.755,0.356,0.621,0.584,�k,5.7,��
2021/11/02,12:00,0.588,0.877,0.560,1.079,0.756,0.356,0.622,0.583,�k,6.1,��
2021/11/02,12:10,0.586,0.880,0.558,1.075,0.759,0.357,0.621,0.581,�k�k��,6.1,��
2021/11/02,12:20,0.586,0.880,0.559,1.077,0.756,0.356,0.619,0.581,�k,6.0,��
2021/11/02,12:30,0.586,0.879,0.560,1.076,0.754,0.356,0.620,0.581,�k,5.5,��
2021/11/02,12:40,0.588,0.879,0.559,1.076,0.755,0.356,0.621,0.581,�k�k��,5.7,��
2021/11/02,12:50,0.586,0.879,0.559,1.075,0.756,0.357,0.620,0.581,�k�k��,5.3,��
2021/11/02,13:00,0.588,0.878,0.558,1.077,0.757,0.357,0.621,0.580,�k,4.5,��
2021/11/02,13:10,0.588,0.878,0.558,1.078,0.758,0.356,0.620,0.581,�k,4.7,��
2021/11/02,13:20,0.588,0.878,0.558,1.077,0.754,0.355,0.623,0.581,�k,4.6,��
2021/11/02,13:30,0.589,0.878,0.557,1.077,0.757,0.357,0.621,0.581,�k,4.3,��
2021/11/02,13:40,0.588,0.878,0.558,1.074,0.756,0.356,0.621,0.582,�k�k��,4.2,��
2021/11/02,13:50,0.587,0.879,0.558,1.077,0.758,0.355,0.622,0.582,�k,4.8,��
2021/11/02,14:00,0.589,0.878,0.558,1.075,0.757,0.357,0.621,0.582,�k,5.0,��
2021/11/02,14:10,0.588,0.878,0.558,1.075,0.757,0.357,0.621,0.583,�k,5.1,��
2021/11/02,14:20,0.588,0.879,0.559,1.078,0.756,0.356,0.621,0.580,�k,5.2,��
2021/11/02,14:30,0.586,0.877,0.559,1.075,0.754,0.357,0.623,0.582,�k,5.7,��
2021/11/02,14:40,0.588,0.878,0.559,1.075,0.756,0.357,0.622,0.583,�k,5.3,��
2021/11/02,14:50,0.588,0.879,0.560,1.076,0.757,0.357,0.622,0.583,�k,5.2,��
2021/11/02,15:00,0.586,0.878,0.559,1.078,0.756,0.357,0.623,0.582,�k,4.0,��
2021/11/02,15:10,0.587,0.879,0.559,1.076,0.757,0.358,0.623,0.581,�k,3.8,��
2021/11/02,15:20,0.587,0.879,0.559,1.080,0.759,0.357,0.621,0.582,�k,4.4,��
2021/11/02,15:30,0.588,0.880,0.561,1.077,0.757,0.356,0.622,0.583,�k,4.9,��
2021/11/02,15:40,0.587,0.879,0.559,1.078,0.756,0.357,0.622,0.583,�k,4.9,��
2021/11/02,15:50,0.588,0.882,0.559,1.076,0.757,0.358,0.622,0.583,�k,6.0,��
2021/11/02,16:00,0.588,0.882,0.559,1.077,0.756,0.357,0.622,0.583,�k�k��,6.1,��
2021/11/02,16:10,0.586,0.881,0.558,1.075,0.755,0.359,0.623,0.584,�k�k��,5.4,��
2021/11/02,16:20,0.586,0.880,0.559,1.077,0.756,0.356,0.625,0.585,�k�k��,4.8,��
2021/11/02,16:30,0.587,0.881,0.557,1.076,0.756,0.358,0.621,0.585,�k,4.6,��
2021/11/02,16:40,0.588,0.884,0.560,1.077,0.758,0.360,0.623,0.585,�k,4.4,��
2021/11/02,16:50,0.588,0.884,0.561,1.077,0.757,0.358,0.623,0.584,�k�k��,3.6,��
2021/11/02,17:00,0.590,0.883,0.560,1.076,0.758,0.358,0.622,0.585,�k�k��,3.0,��
2021/11/02,17:10,0.589,0.885,0.561,1.074,0.757,0.360,0.624,0.584,�k�k��,3.8,��
2021/11/02,17:20,0.589,0.884,0.559,1.078,0.758,0.359,0.623,0.585,�k�k��,3.5,��
2021/11/02,17:30,0.588,0.882,0.560,1.076,0.759,0.359,0.623,0.582,�k��,3.4,��
2021/11/02,17:40,0.588,0.883,0.562,1.077,0.757,0.358,0.624,0.583,�k�k��,4.4,��
2021/11/02,17:50,0.590,0.883,0.562,1.079,0.759,0.358,0.624,0.584,�k�k��,5.1,��
2021/11/02,18:00,0.590,0.882,0.561,1.075,0.758,0.359,0.622,0.584,�k,5.8,��
2021/11/02,18:10,0.589,0.883,0.560,1.078,0.760,0.359,0.623,0.584,�k�k��,5.3,��
2021/11/02,18:20,0.588,0.885,0.562,1.077,0.758,0.358,0.622,0.584,�k�k��,4.9,��
2021/11/02,18:30,0.589,0.884,0.561,1.076,0.760,0.358,0.624,0.583,�k�k��,5.7,��
2021/11/02,18:40,0.588,0.886,0.561,1.079,0.759,0.357,0.622,0.584,�k�k��,5.6,��
2021/11/02,18:50,0.590,0.883,0.559,1.077,0.757,0.359,0.623,0.582,�k,5.2,��
2021/11/02,19:00,0.590,0.884,0.562,1.076,0.758,0.357,0.620,0.583,�k�k��,3.9,��
2021/11/02,19:10,0.589,0.880,0.559,1.077,0.759,0.358,0.622,0.584,�k�k��,4.7,��
2021/11/02,19:20,0.589,0.884,0.561,1.077,0.758,0.358,0.622,0.584,�k�k��,3.3,��
2021/11/02,19:30,0.589,0.884,0.562,1.077,0.759,0.359,0.622,0.584,�k��,3.5,��
2021/11/02,19:40,0.589,0.883,0.561,1.076,0.759,0.359,0.622,0.583,�k��,3.4,��
2021/11/02,19:50,0.589,0.887,0.561,1.076,0.759,0.357,0.622,0.584,���k��,3.3,��
2021/11/02,20:00,0.590,0.886,0.561,1.077,0.759,0.358,0.621,0.584,�k��,2.6,��
2021/11/02,20:10,0.589,0.885,0.560,1.077,0.759,0.358,0.623,0.585,�k��,3.1,��
2021/11/02,20:20,0.589,0.886,0.562,1.076,0.759,0.359,0.622,0.583,�k��,3.6,��
2021/11/02,20:30,0.589,0.885,0.561,1.078,0.760,0.358,0.621,0.584,�k��,4.0,��
2021/11/02,20:40,0.590,0.882,0.560,1.076,0.758,0.359,0.623,0.585,�k��,5.6,��
2021/11/02,20:50,0.589,0.882,0.560,1.078,0.757,0.358,0.623,0.584,�k��,5.5,��
2021/11/02,21:00,0.590,0.883,0.561,1.076,0.757,0.359,0.622,0.584,�k��,5.5,��
2021/11/02,21:10,0.589,0.883,0.561,1.078,0.760,0.359,0.623,0.584,�k�k��,5.5,��
2021/11/02,21:20,0.588,0.880,0.560,1.079,0.760,0.359,0.622,0.584,�k��,5.3,��
2021/11/02,21:30,0.590,0.883,0.561,1.079,0.760,0.358,0.622,0.583,�k��,5.0,��
2021/11/02,21:40,0.588,0.883,0.560,1.077,0.759,0.360,0.622,0.584,�k�k��,5.1,��
2021/11/02,21:50,0.589,0.882,0.562,1.080,0.760,0.360,0.622,0.585,�k�k��,4.7,��
2021/11/02,22:00,0.588,0.884,0.561,1.079,0.759,0.359,0.622,0.585,�k�k��,4.0,��
2021/11/02,22:10,0.587,0.884,0.560,1.075,0.761,0.358,0.621,0.585,�k�k��,4.5,��
2021/11/02,22:20,0.587,0.883,0.560,1.076,0.758,0.358,0.621,0.584,�k�k��,5.1,��
2021/11/02,22:30,0.588,0.882,0.561,1.076,0.759,0.360,0.622,0.584,�k�k��,4.4,��
2021/11/02,22:40,0.590,0.884,0.560,1.077,0.756,0.358,0.621,0.585,�k��,4.3,��
2021/11/02,22:50,0.588,0.883,0.561,1.075,0.759,0.358,0.622,0.584,�k��,4.7,��
2021/11/02,23:00,0.588,0.883,0.561,1.078,0.758,0.357,0.623,0.583,�k��,5.8,��
2021/11/02,23:10,0.588,0.885,0.562,1.077,0.759,0.358,0.623,0.584,�k��,4.5,��
2021/11/02,23:20,0.589,0.881,0.562,1.077,0.758,0.359,0.622,0.585,�k��,4.5,��
2021/11/02,23:30,0.591,0.885,0.561,1.077,0.760,0.359,0.621,0.584,�k��,5.4,��
2021/11/02,23:40,0.590,0.885,0.562,1.077,0.760,0.359,0.624,0.584,�k��,5.4,��
2021/11/02,23:50,0.589,0.883,0.561,1.077,0.760,0.357,0.624,0.584,�k��,4.9,��
